Location: Unspecified
(0.0000°N, 0.0000°E)
Time: 16:15:50
(UTC+00:00)

Vanguard 1 - Pass Details

Date: 19 November 2019
Orbit: 651 x 3832 km, 34.3° (Epoch: 11 December)

Event Time Altitude Azimuth Distance (km) Brightness Sun altitude
Rises 21:53:09 0° 253° (WSW) 4,665 14.0 -56.3°
Reaches altitude 10° 21:57:05 10° 235° (SW) 4,157 13.6 -57.0°
Maximum altitude 22:05:07 20° 192° (SSW) 4,268 13.4 -58.6°
Drops below altitude 10° 22:16:34 10° 152° (SSE) 6,086 14.1 -60.7°
Sets 22:24:41 0° 137° (SE) 7,611 14.6 -62.2°
